Time,TemperatureF,DewpointF,PressureIn,WindDirection,WindDirectionDegrees,WindSpeedMPH,WindSpeedGustMPH,Humidity,HourlyPrecipIn,Conditions,Clouds,dailyrainin,SoftwareType,DateUTC
2013-04-23 00:13:00,60.9,50.7,30.04,East,100,1.1,4.6,69,0.00,,,0.00,VWS V14.01,2013-04-23 05:13:00,
2013-04-23 00:28:00,60.6,50.8,30.04,ESE,113,0.0,4.6,70,0.00,,,0.00,VWS V14.01,2013-04-23 05:28:00,
2013-04-23 00:43:00,60.4,50.6,30.04,SE,126,1.1,5.8,70,0.00,,,0.00,VWS V14.01,2013-04-23 05:43:00,
2013-04-23 00:58:00,60.1,50.7,30.04,SE,128,0.0,5.8,71,0.00,,,0.00,VWS V14.01,2013-04-23 05:58:00,
2013-04-23 01:13:00,59.9,50.9,30.03,East,98,1.1,3.4,72,0.00,,,0.00,VWS V14.01,2013-04-23 06:13:00,
2013-04-23 01:28:00,59.6,51.0,30.02,SSE,153,4.6,5.8,73,0.00,,,0.00,VWS V14.01,2013-04-23 06:28:00,
2013-04-23 01:43:00,59.4,51.1,30.02,East,101,2.3,4.6,74,0.00,,,0.00,VWS V14.01,2013-04-23 06:43:00,
2013-04-23 01:58:00,59.0,51.1,30.02,SW,221,1.1,6.9,75,0.00,,,0.00,VWS V14.01,2013-04-23 06:58:00,
2013-04-23 02:13:00,58.9,51.4,30.01,ESE,105,2.3,4.6,76,0.00,,,0.00,VWS V14.01,2013-04-23 07:13:00,
2013-04-23 02:28:00,58.5,51.3,30.01,ESE,107,1.1,5.8,77,0.00,,,0.00,VWS V14.01,2013-04-23 07:28:00,
2013-04-23 02:43:00,58.1,51.6,30.01,ESE,103,0.0,3.4,79,0.00,,,0.00,VWS V14.01,2013-04-23 07:43:00,
2013-04-23 02:58:00,57.8,51.7,30.00,SE,134,2.3,4.6,80,0.00,,,0.00,VWS V14.01,2013-04-23 07:58:00,
2013-04-23 03:13:00,57.9,52.1,30.01,SE,129,1.1,6.9,81,0.00,,,0.00,VWS V14.01,2013-04-23 08:13:00,
2013-04-23 03:28:00,57.9,52.5,30.01,ESE,103,1.1,4.6,82,0.00,,,0.00,VWS V14.01,2013-04-23 08:28:00,
2013-04-23 03:43:00,57.9,52.8,30.01,SE,124,0.0,8.1,83,0.00,,,0.00,VWS V14.01,2013-04-23 08:43:00,
2013-04-23 03:58:00,58.0,53.2,30.01,SSE,151,0.0,3.4,84,0.00,,,0.00,VWS V14.01,2013-04-23 08:58:00,
2013-04-23 04:13:00,57.9,53.4,30.01,ESE,120,0.0,2.3,85,0.00,,,0.00,VWS V14.01,2013-04-23 09:13:00,
2013-04-23 04:28:00,57.9,53.4,30.01,SE,131,1.1,4.6,85,0.00,,,0.00,VWS V14.01,2013-04-23 09:28:00,
2013-04-23 04:43:00,57.7,53.5,30.00,ESE,109,1.1,4.6,86,0.00,,,0.00,VWS V14.01,2013-04-23 09:43:00,
2013-04-23 04:58:00,57.8,54.0,30.00,ESE,117,1.1,4.6,87,0.00,,,0.00,VWS V14.01,2013-04-23 09:58:00,
2013-04-23 05:13:00,57.9,54.1,30.01,SSW,203,1.1,4.6,87,0.00,,,0.00,VWS V14.01,2013-04-23 10:13:00,
2013-04-23 05:28:00,57.9,54.4,30.01,ESE,110,2.3,3.4,88,0.00,,,0.00,VWS V14.01,2013-04-23 10:28:00,
2013-04-23 05:43:00,58.0,54.8,30.01,SSE,155,0.0,5.8,89,0.00,,,0.00,VWS V14.01,2013-04-23 10:43:00,
2013-04-23 05:58:00,58.5,55.3,30.01,ESE,123,1.1,3.4,89,0.00,,,0.00,VWS V14.01,2013-04-23 10:58:00,
2013-04-23 06:13:00,59.0,55.8,30.00,SSE,159,2.3,6.9,89,0.00,,,0.00,VWS V14.01,2013-04-23 11:13:00,
2013-04-23 06:28:00,59.4,56.2,30.01,SSE,168,1.1,5.8,89,0.00,,,0.00,VWS V14.01,2013-04-23 11:28:00,
2013-04-23 06:43:00,59.8,56.6,30.01,SSW,207,2.3,5.8,89,0.00,,,0.00,VWS V14.01,2013-04-23 11:43:00,
2013-04-23 06:58:00,60.1,56.8,30.02,South,184,2.3,5.8,89,0.00,,,0.00,VWS V14.01,2013-04-23 11:58:00,
2013-04-23 07:13:00,60.3,57.0,30.02,SSE,166,1.1,11.5,89,0.00,,,0.00,VWS V14.01,2013-04-23 12:13:00,
2013-04-23 07:28:00,60.6,57.3,30.02,SSW,201,3.4,6.9,89,0.00,,,0.00,VWS V14.01,2013-04-23 12:28:00,
2013-04-23 07:43:00,60.7,57.4,30.03,South,190,5.8,9.2,89,0.00,,,0.00,VWS V14.01,2013-04-23 12:43:00,
2013-04-23 07:58:00,61.3,58.0,30.03,SW,214,2.3,6.9,89,0.00,,,0.00,VWS V14.01,2013-04-23 12:58:00,
2013-04-23 08:13:00,61.8,57.9,30.04,South,172,6.9,13.8,87,0.00,,,0.00,VWS V14.01,2013-04-23 13:13:00,
2013-04-23 08:28:00,61.7,57.8,30.03,SSW,203,5.8,17.2,87,0.00,,,0.00,VWS V14.01,2013-04-23 13:28:00,
2013-04-23 08:43:00,61.8,57.9,30.03,South,174,5.8,14.9,87,0.00,,,0.00,VWS V14.01,2013-04-23 13:43:00,
2013-04-23 08:58:00,62.0,58.1,30.04,SW,224,6.9,12.6,87,0.00,,,0.00,VWS V14.01,2013-04-23 13:58:00,
2013-04-23 09:13:00,62.2,58.6,30.03,SSW,193,2.3,10.3,88,0.00,,,0.00,VWS V14.01,2013-04-23 14:13:00,
2013-04-23 09:28:00,62.4,58.5,30.04,ESE,110,4.6,12.6,87,0.00,,,0.00,VWS V14.01,2013-04-23 14:28:00,
2013-04-23 09:43:00,63.1,59.2,30.04,SE,133,4.6,6.9,87,0.00,,,0.00,VWS V14.01,2013-04-23 14:43:00,
2013-04-23 09:58:00,63.9,59.3,30.05,ESE,111,3.4,8.1,85,0.00,,,0.00,VWS V14.01,2013-04-23 14:58:00,
2013-04-23 10:13:00,64.4,59.5,30.05,ESE,110,2.3,9.2,84,0.00,,,0.00,VWS V14.01,2013-04-23 15:13:00,
2013-04-23 10:28:00,64.4,59.5,30.05,SW,222,0.0,10.3,84,0.00,,,0.00,VWS V14.01,2013-04-23 15:28:00,
2013-04-23 10:43:00,64.5,59.9,30.05,SSW,210,8.1,9.2,85,0.00,,,0.00,VWS V14.01,2013-04-23 15:43:00,
2013-04-23 10:58:00,64.9,60.0,30.05,WNW,283,2.3,8.1,84,0.00,,,0.00,VWS V14.01,2013-04-23 15:58:00,
2013-04-23 11:13:00,65.7,60.4,30.04,SE,129,4.6,9.2,83,0.00,,,0.00,VWS V14.01,2013-04-23 16:13:00,
2013-04-23 11:28:00,66.9,60.5,30.05,SSE,156,3.4,11.5,80,0.00,,,0.00,VWS V14.01,2013-04-23 16:28:00,
2013-04-23 11:43:00,67.0,60.3,30.05,South,173,3.4,11.5,79,0.00,,,0.00,VWS V14.01,2013-04-23 16:43:00,
2013-04-23 11:58:00,67.4,60.7,30.04,WSW,249,1.1,11.5,79,0.00,,,0.00,VWS V14.01,2013-04-23 16:58:00,
2013-04-23 12:13:00,69.2,61.3,30.02,SSW,212,8.1,12.6,76,0.00,,,0.00,VWS V14.01,2013-04-23 17:13:00,
2013-04-23 12:28:00,70.9,61.4,30.02,SW,217,11.5,13.8,72,0.00,,,0.00,VWS V14.01,2013-04-23 17:28:00,
2013-04-23 12:43:00,71.3,61.0,30.01,SW,231,5.8,18.4,70,0.00,,,0.00,VWS V14.01,2013-04-23 17:43:00,
2013-04-23 12:58:00,71.7,60.2,30.00,South,186,3.4,14.9,67,0.00,,,0.00,VWS V14.01,2013-04-23 17:58:00,
2013-04-23 13:13:00,72.4,60.8,30.00,NNW,340,2.3,18.4,67,0.00,,,0.00,VWS V14.01,2013-04-23 18:13:00,
2013-04-23 13:28:00,72.0,59.6,29.99,SE,125,3.4,16.1,65,0.00,,,0.00,VWS V14.01,2013-04-23 18:28:00,
2013-04-23 13:43:00,72.6,60.2,29.98,ENE,77,3.4,16.1,65,0.00,,,0.00,VWS V14.01,2013-04-23 18:43:00,
2013-04-23 13:58:00,72.2,59.4,29.98,South,182,2.3,13.8,64,0.00,,,0.00,VWS V14.01,2013-04-23 18:58:00,
2013-04-23 14:13:00,73.4,60.5,29.98,SSE,160,1.1,13.8,64,0.00,,,0.00,VWS V14.01,2013-04-23 19:13:00,
2013-04-23 14:28:00,73.7,60.3,29.97,SE,134,4.6,14.9,63,0.00,,,0.00,VWS V14.01,2013-04-23 19:28:00,
2013-04-23 14:43:00,73.3,60.4,29.97,East,90,5.8,13.8,64,0.00,,,0.00,VWS V14.01,2013-04-23 19:43:00,
2013-04-23 14:58:00,74.3,60.5,29.96,SSW,195,8.1,14.9,62,0.00,,,0.00,VWS V14.01,2013-04-23 19:58:00,
2013-04-23 15:13:00,75.1,60.8,29.95,SSW,210,6.9,17.2,61,0.00,,,0.00,VWS V14.01,2013-04-23 20:13:00,
2013-04-23 15:28:00,74.6,60.3,29.94,SSE,162,2.3,17.2,61,0.00,,,0.00,VWS V14.01,2013-04-23 20:28:00,
2013-04-23 15:43:00,74.2,60.8,29.94,SSW,208,9.2,11.5,63,0.00,,,0.00,VWS V14.01,2013-04-23 20:43:00,
2013-04-23 15:58:00,74.8,61.8,29.93,SSW,210,4.6,13.8,64,0.00,,,0.00,VWS V14.01,2013-04-23 20:58:00,
2013-04-23 16:13:00,74.5,61.5,29.92,ESE,115,4.6,14.9,64,0.00,,,0.00,VWS V14.01,2013-04-23 21:13:00,
2013-04-23 16:28:00,74.4,61.0,29.92,SW,221,10.3,16.1,63,0.00,,,0.00,VWS V14.01,2013-04-23 21:28:00,
2013-04-23 16:43:00,74.6,60.7,29.91,SE,127,2.3,14.9,62,0.00,,,0.00,VWS V14.01,2013-04-23 21:43:00,
2013-04-23 16:58:00,74.4,61.4,29.92,East,91,9.2,13.8,64,0.00,,,0.00,VWS V14.01,2013-04-23 21:58:00,
2013-04-23 17:13:00,74.0,61.5,29.92,WSW,257,3.4,11.5,65,0.00,,,0.00,VWS V14.01,2013-04-23 22:13:00,
2013-04-23 17:28:00,74.1,61.6,29.91,SW,215,3.4,13.8,65,0.00,,,0.00,VWS V14.01,2013-04-23 22:28:00,
2013-04-23 17:43:00,74.4,62.3,29.90,SE,140,3.4,8.1,66,0.00,,,0.00,VWS V14.01,2013-04-23 22:43:00,
2013-04-23 17:58:00,74.5,62.4,29.90,South,169,4.6,10.3,66,0.00,,,0.00,VWS V14.01,2013-04-23 22:58:00,
2013-04-23 18:13:00,74.6,62.1,29.90,SSE,152,4.6,10.3,65,0.00,,,0.00,VWS V14.01,2013-04-23 23:13:00,
2013-04-23 18:28:00,74.7,62.2,29.89,SW,222,3.4,8.1,65,0.00,,,0.00,VWS V14.01,2013-04-23 23:28:00,
2013-04-23 18:43:00,74.0,61.9,29.89,SSW,205,4.6,12.6,66,0.00,,,0.00,VWS V14.01,2013-04-23 23:43:00,
2013-04-23 18:58:00,73.5,61.9,29.90,ESE,110,1.1,8.1,67,0.00,,,0.00,VWS V14.01,2013-04-23 23:58:00,
2013-04-23 19:13:00,72.9,61.3,29.90,ENE,72,3.4,9.2,67,0.00,,,0.00,VWS V14.01,2013-04-24 00:13:00,
2013-04-23 19:28:00,72.2,61.5,29.90,South,190,1.1,9.2,69,0.00,,,0.00,VWS V14.01,2013-04-24 00:28:00,
2013-04-23 19:43:00,71.6,61.7,29.91,SSW,211,1.1,5.8,71,0.00,,,0.00,VWS V14.01,2013-04-24 00:43:00,
2013-04-23 19:58:00,71.5,61.6,29.91,SSW,208,0.0,6.9,71,0.00,,,0.00,VWS V14.01,2013-04-24 00:58:00,
2013-04-23 20:13:00,71.4,61.5,29.91,SSE,165,1.1,9.2,71,0.00,,,0.00,VWS V14.01,2013-04-24 01:13:00,
2013-04-23 20:28:00,71.1,61.2,29.92,ESE,109,2.3,6.9,71,0.00,,,0.00,VWS V14.01,2013-04-24 01:28:00,
2013-04-23 20:43:00,70.6,61.1,29.91,ENE,75,0.0,6.9,72,0.00,,,0.00,VWS V14.01,2013-04-24 01:43:00,
2013-04-23 20:58:00,70.5,61.4,29.91,SSE,163,0.0,5.8,73,0.00,,,0.00,VWS V14.01,2013-04-24 01:58:00,
2013-04-23 21:58:00,69.7,61.4,29.93,SSE,153,0.0,9.2,75,0.00,,,0.00,VWS V14.01,2013-04-24 02:58:00,
2013-04-23 22:13:00,69.4,61.1,29.93,ENE,77,0.0,9.2,75,0.00,,,0.00,VWS V14.01,2013-04-24 03:13:00,
2013-04-23 22:28:00,68.9,61.0,29.92,SE,143,1.1,5.8,76,0.00,,,0.00,VWS V14.01,2013-04-24 03:28:00,
2013-04-23 22:43:00,68.7,61.2,29.92,ESE,116,3.4,5.8,77,0.00,,,0.00,VWS V14.01,2013-04-24 03:43:00,
2013-04-23 22:58:00,68.5,61.4,29.91,SW,221,0.0,9.2,78,0.00,,,0.00,VWS V14.01,2013-04-24 03:58:00,
2013-04-23 23:13:00,68.5,61.4,29.90,SW,216,1.1,9.2,78,0.00,,,0.00,VWS V14.01,2013-04-24 04:13:00,
2013-04-23 23:28:00,68.5,61.4,29.91,East,82,2.3,6.9,78,0.00,,,0.00,VWS V14.01,2013-04-24 04:28:00,
2013-04-23 23:43:00,68.4,61.6,29.91,SW,222,3.4,9.2,79,0.00,,,0.00,VWS V14.01,2013-04-24 04:43:00,
2013-04-23 23:58:00,66.8,62.8,29.92,WSW,255,0.0,6.9,87,0.10,,,0.00,VWS V14.01,2013-04-24 04:58:00,